Year,Month,Day,Hour,Minute,Value (Times are PST for temperature in C)
2017,05,17,00,01,10.30
2017,05,17,00,02,10.30
2017,05,17,00,03,10.30
2017,05,17,00,04,10.30
2017,05,17,00,06,10.30
2017,05,17,00,07,10.30
2017,05,17,00,09,10.30
2017,05,17,00,11,10.30
2017,05,17,00,12,10.30
2017,05,17,00,13,10.30
2017,05,17,00,14,10.30
2017,05,17,00,16,10.30
2017,05,17,00,17,10.30
2017,05,17,00,18,10.20
2017,05,17,00,19,10.20
2017,05,17,00,21,10.20
2017,05,17,00,22,10.20
2017,05,17,00,23,10.20
2017,05,17,00,24,10.20
2017,05,17,00,26,10.20
2017,05,17,00,27,10.20
2017,05,17,00,28,10.20
2017,05,17,00,29,10.20
2017,05,17,00,31,10.20
2017,05,17,00,32,10.20
2017,05,17,00,33,10.20
2017,05,17,00,34,10.20
2017,05,17,00,36,10.20
2017,05,17,00,37,10.20
2017,05,17,00,38,10.20
2017,05,17,00,39,10.20
2017,05,17,00,41,10.20
2017,05,17,00,42,10.20
2017,05,17,00,43,10.20
2017,05,17,00,44,10.20
2017,05,17,00,46,10.20
2017,05,17,00,47,10.30
2017,05,17,00,48,10.30
2017,05,17,00,49,10.30
2017,05,17,00,51,10.30
2017,05,17,00,52,10.30
2017,05,17,00,53,10.30
2017,05,17,00,54,10.30
2017,05,17,00,56,10.40
2017,05,17,00,57,10.40
2017,05,17,00,58,10.40
2017,05,17,00,59,10.40
2017,05,17,01,01,10.40
2017,05,17,01,02,10.40
2017,05,17,01,03,10.40
2017,05,17,01,04,10.40
2017,05,17,01,06,10.40
2017,05,17,01,07,10.40
2017,05,17,01,08,10.40
2017,05,17,01,09,10.40
2017,05,17,01,11,10.40
2017,05,17,01,12,10.40
2017,05,17,01,13,10.40
2017,05,17,01,14,10.40
2017,05,17,01,15,10.40
2017,05,17,01,16,10.30
2017,05,17,01,17,10.30
2017,05,17,01,18,10.30
2017,05,17,01,19,10.30
2017,05,17,01,20,10.30
2017,05,17,01,21,10.30
2017,05,17,01,22,10.30
2017,05,17,01,23,10.30
2017,05,17,01,24,10.30
2017,05,17,01,25,10.30
2017,05,17,01,26,10.30
2017,05,17,01,27,10.30
2017,05,17,01,28,10.30
2017,05,17,01,29,10.30
2017,05,17,01,30,10.30
2017,05,17,01,31,10.20
2017,05,17,01,32,10.20
2017,05,17,01,33,10.20
2017,05,17,01,34,10.20
2017,05,17,01,35,10.20
2017,05,17,01,36,10.20
2017,05,17,01,37,10.20
2017,05,17,01,38,10.20
2017,05,17,01,39,10.20
2017,05,17,01,40,10.20
2017,05,17,01,41,10.20
2017,05,17,01,42,10.20
2017,05,17,01,43,10.10
2017,05,17,01,44,10.10
2017,05,17,01,45,10.10
2017,05,17,01,46,10.10
2017,05,17,01,47,10.10
2017,05,17,01,48,10.10
2017,05,17,01,49,10.10
2017,05,17,01,50,10.10
2017,05,17,01,51,10.10
2017,05,17,01,52,10.10
2017,05,17,01,53,10.10
2017,05,17,01,54,10.10
2017,05,17,01,55,10.10
2017,05,17,01,56,10.10
2017,05,17,01,57,10.10
2017,05,17,01,58,10.10
2017,05,17,01,59,10.10
2017,05,17,02,00,10.10
2017,05,17,02,01,10.10
2017,05,17,02,02,10.10
2017,05,17,02,03,10.10
2017,05,17,02,04,10.10
2017,05,17,02,05,10.10
2017,05,17,02,06,10.10
2017,05,17,02,07,10.10
2017,05,17,02,08,10.10
2017,05,17,02,09,10.10
2017,05,17,02,10,10.10
2017,05,17,02,11,10.10
2017,05,17,02,12,10.10
2017,05,17,02,13,10.10
2017,05,17,02,14,10.10
2017,05,17,02,15,10.10
2017,05,17,02,16,10.10
2017,05,17,02,17,10.10
2017,05,17,02,18,10.10
2017,05,17,02,19,10.10
2017,05,17,02,20,10.10
2017,05,17,02,21,9.90
2017,05,17,02,22,9.90
2017,05,17,02,23,9.90
2017,05,17,02,24,9.90
2017,05,17,02,25,9.90
2017,05,17,02,27,9.90
2017,05,17,02,28,9.90
2017,05,17,02,29,9.90
2017,05,17,02,31,9.90
2017,05,17,02,32,9.90
2017,05,17,02,33,9.90
2017,05,17,02,34,9.90
2017,05,17,02,36,9.90
2017,05,17,02,37,9.90
2017,05,17,02,38,9.90
2017,05,17,02,39,9.90
2017,05,17,02,41,9.90
2017,05,17,02,42,9.90
2017,05,17,02,43,9.90
2017,05,17,02,44,9.90
2017,05,17,02,46,9.90
2017,05,17,02,47,9.90
2017,05,17,02,48,9.90
2017,05,17,02,49,9.90
2017,05,17,02,51,9.90
2017,05,17,02,52,9.90
2017,05,17,02,53,9.90
2017,05,17,02,54,9.90
2017,05,17,02,56,9.90
2017,05,17,02,57,9.90
2017,05,17,02,58,9.90
2017,05,17,02,59,9.90
2017,05,17,03,01,9.90
2017,05,17,03,02,9.90
2017,05,17,03,03,9.90
2017,05,17,03,04,9.90
2017,05,17,03,06,9.90
2017,05,17,03,07,9.90
2017,05,17,03,08,9.90
2017,05,17,03,09,9.90
2017,05,17,03,11,9.90
2017,05,17,03,12,9.90
2017,05,17,03,13,9.90
2017,05,17,03,14,10.10
2017,05,17,03,16,10.10
2017,05,17,03,17,10.10
2017,05,17,03,18,10.10
2017,05,17,03,19,10.10
2017,05,17,03,21,10.10
2017,05,17,03,22,10.10
2017,05,17,03,23,10.10
2017,05,17,03,24,10.10
2017,05,17,03,26,10.10
2017,05,17,03,27,10.10
2017,05,17,03,28,10.10
2017,05,17,03,29,10.10
2017,05,17,03,31,10.10
2017,05,17,03,32,10.10
2017,05,17,03,33,10.10
2017,05,17,03,34,10.10
2017,05,17,03,36,10.10
2017,05,17,03,37,10.10
2017,05,17,03,38,10.10
2017,05,17,03,39,10.10
2017,05,17,03,41,10.10
2017,05,17,03,42,10.10
2017,05,17,03,43,10.10
2017,05,17,03,44,10.10
2017,05,17,03,45,10.10
2017,05,17,03,46,10.10
2017,05,17,03,47,10.10
2017,05,17,03,48,10.10
2017,05,17,03,49,10.10
2017,05,17,03,51,10.10
2017,05,17,03,52,10.10
2017,05,17,03,53,10.10
2017,05,17,03,54,10.10
2017,05,17,03,55,10.10
2017,05,17,03,56,10.10
2017,05,17,03,57,10.10
2017,05,17,03,58,10.10
2017,05,17,03,59,10.10
2017,05,17,04,00,10.10
2017,05,17,04,01,10.10
2017,05,17,04,02,10.10
2017,05,17,04,03,10.10
2017,05,17,04,04,10.10
2017,05,17,04,06,10.10
2017,05,17,04,07,10.10
2017,05,17,04,08,10.10
2017,05,17,04,09,10.10
2017,05,17,04,10,10.10
2017,05,17,04,11,10.10
2017,05,17,04,12,10.10
2017,05,17,04,13,10.10
2017,05,17,04,14,10.10
2017,05,17,04,15,10.10
2017,05,17,04,16,10.20
2017,05,17,04,17,10.20
2017,05,17,04,18,10.20
2017,05,17,04,19,10.20
2017,05,17,04,20,10.20
2017,05,17,04,21,10.20
2017,05,17,04,22,10.20
2017,05,17,04,23,10.20
2017,05,17,04,24,10.20
2017,05,17,04,25,10.20
2017,05,17,04,26,10.20
2017,05,17,04,27,10.20
2017,05,17,04,28,10.20
2017,05,17,04,29,10.20
2017,05,17,04,30,10.20
2017,05,17,04,31,10.10
2017,05,17,04,32,10.10
2017,05,17,04,33,10.10
2017,05,17,04,34,10.10
2017,05,17,04,35,10.10
2017,05,17,04,36,10.10
2017,05,17,04,37,10.10
2017,05,17,04,38,10.10
2017,05,17,04,39,10.10
2017,05,17,04,40,10.10
2017,05,17,04,41,10.10
2017,05,17,04,42,10.10
2017,05,17,04,43,10.10
2017,05,17,04,44,10.10
2017,05,17,04,45,10.10
2017,05,17,04,46,10.10
2017,05,17,04,47,10.10
2017,05,17,04,48,10.10
2017,05,17,04,49,10.10
2017,05,17,04,50,10.10
2017,05,17,04,51,10.10
2017,05,17,04,52,10.10
2017,05,17,04,53,9.90
2017,05,17,04,54,9.90
2017,05,17,04,55,9.90
2017,05,17,04,56,9.90
2017,05,17,04,57,9.90
2017,05,17,04,58,9.90
2017,05,17,04,59,9.90
2017,05,17,05,00,9.90
2017,05,17,05,01,9.90
2017,05,17,05,02,9.90
2017,05,17,05,04,9.90
2017,05,17,05,06,9.90
2017,05,17,05,07,9.90
2017,05,17,05,08,9.90
2017,05,17,05,09,9.90
2017,05,17,05,11,9.90
2017,05,17,05,12,9.90
2017,05,17,05,13,9.90
2017,05,17,05,14,9.90
2017,05,17,05,16,9.90
2017,05,17,05,17,9.90
2017,05,17,05,18,9.90
2017,05,17,05,19,9.90
2017,05,17,05,21,9.90
2017,05,17,05,22,9.80
2017,05,17,05,23,9.80
2017,05,17,05,24,9.80
2017,05,17,05,26,9.80
2017,05,17,05,27,9.80
2017,05,17,05,28,9.80
2017,05,17,05,29,9.80
2017,05,17,05,31,9.80
2017,05,17,05,32,9.80
2017,05,17,05,33,9.80
2017,05,17,05,34,9.80
2017,05,17,05,36,9.80
2017,05,17,05,37,9.70
2017,05,17,05,38,9.70
2017,05,17,05,39,9.70
2017,05,17,05,41,9.70
2017,05,17,05,42,9.70
2017,05,17,05,43,9.70
2017,05,17,05,44,9.70
2017,05,17,05,46,9.70
2017,05,17,05,47,9.70
2017,05,17,05,48,9.70
2017,05,17,05,49,9.70
2017,05,17,05,51,9.70
2017,05,17,05,52,9.70
2017,05,17,05,53,9.70
2017,05,17,05,54,9.70
2017,05,17,05,56,9.70
2017,05,17,05,57,9.70
2017,05,17,05,58,9.70
2017,05,17,05,59,9.70
2017,05,17,06,01,9.70
2017,05,17,06,02,9.70
2017,05,17,06,03,9.70
2017,05,17,06,04,9.70
2017,05,17,06,06,9.70
2017,05,17,06,07,9.70
2017,05,17,06,08,9.70
2017,05,17,06,09,9.70
2017,05,17,06,11,9.70
2017,05,17,06,12,9.80
2017,05,17,06,13,9.70
2017,05,17,06,14,9.70
2017,05,17,06,16,9.80
2017,05,17,06,17,9.80
2017,05,17,06,18,9.80
2017,05,17,06,19,9.80
2017,05,17,06,21,9.80
2017,05,17,06,22,9.80
2017,05,17,06,23,9.80
2017,05,17,06,24,9.80
2017,05,17,06,26,9.80
2017,05,17,06,27,9.80
2017,05,17,06,28,9.80
2017,05,17,06,29,9.80
2017,05,17,06,30,9.80
2017,05,17,06,31,9.80
2017,05,17,06,32,9.80
2017,05,17,06,33,9.80
2017,05,17,06,34,9.80
2017,05,17,06,36,9.90
2017,05,17,06,37,9.90
2017,05,17,06,38,9.90
2017,05,17,06,39,9.90
2017,05,17,06,40,9.90
2017,05,17,06,41,9.90
2017,05,17,06,42,9.90
2017,05,17,06,43,9.90
2017,05,17,06,44,9.90
2017,05,17,06,45,9.90
2017,05,17,06,46,9.90
2017,05,17,06,47,9.90
2017,05,17,06,48,9.90
2017,05,17,06,49,10.10
2017,05,17,06,50,10.10
2017,05,17,06,51,10.10
2017,05,17,06,52,10.10
2017,05,17,06,53,10.10
2017,05,17,06,54,10.10
2017,05,17,06,55,10.10
2017,05,17,06,56,10.10
2017,05,17,06,57,10.20
2017,05,17,06,58,10.20
2017,05,17,06,59,10.20
2017,05,17,07,00,10.20
2017,05,17,07,01,10.20
2017,05,17,07,02,10.30
2017,05,17,07,03,10.30
2017,05,17,07,04,10.30
2017,05,17,07,05,10.30
2017,05,17,07,06,10.40
2017,05,17,07,07,10.40
2017,05,17,07,08,10.40
2017,05,17,07,09,10.40
2017,05,17,07,10,10.40
2017,05,17,07,11,10.40
2017,05,17,07,12,10.40
2017,05,17,07,13,10.40
2017,05,17,07,14,10.40
2017,05,17,07,15,10.40
2017,05,17,07,16,10.40
2017,05,17,07,17,10.60
2017,05,17,07,18,10.60
2017,05,17,07,19,10.60
2017,05,17,07,20,10.60
2017,05,17,07,21,10.60
2017,05,17,07,22,10.60
2017,05,17,07,23,10.60
2017,05,17,07,24,10.60
2017,05,17,07,25,10.60
2017,05,17,07,26,10.60
2017,05,17,07,27,10.60
2017,05,17,07,28,10.60
2017,05,17,07,29,10.60
2017,05,17,07,30,10.60
2017,05,17,07,31,10.60
2017,05,17,07,32,10.60
2017,05,17,07,33,10.60
2017,05,17,07,34,10.60
2017,05,17,07,35,10.60
2017,05,17,07,36,10.60
2017,05,17,07,37,10.60
2017,05,17,07,38,10.60
2017,05,17,07,39,10.70
2017,05,17,07,40,10.70
2017,05,17,07,41,10.70
2017,05,17,07,42,10.70
2017,05,17,07,43,10.70
2017,05,17,07,44,10.80
2017,05,17,07,45,10.80
2017,05,17,07,46,10.80
2017,05,17,07,47,10.80
2017,05,17,07,48,10.80
2017,05,17,07,49,10.80
2017,05,17,07,50,10.80
2017,05,17,07,52,10.80
2017,05,17,07,53,10.90
2017,05,17,07,54,10.90
2017,05,17,07,56,10.90
2017,05,17,07,57,10.90
2017,05,17,07,58,10.90
2017,05,17,07,59,10.90
2017,05,17,08,01,10.90
2017,05,17,08,02,10.90
2017,05,17,08,03,11.10
2017,05,17,08,04,11.10
2017,05,17,08,06,11.20
2017,05,17,08,07,11.30
2017,05,17,08,08,11.40
2017,05,17,08,09,11.40
2017,05,17,08,11,11.60
2017,05,17,08,12,11.60
2017,05,17,08,13,11.60
2017,05,17,08,14,11.60
2017,05,17,08,16,11.70
2017,05,17,08,17,11.70
2017,05,17,08,18,11.80
2017,05,17,08,19,11.80
2017,05,17,08,21,11.80
2017,05,17,08,22,11.80
2017,05,17,08,23,11.80
2017,05,17,08,24,11.80
2017,05,17,08,26,11.80
2017,05,17,08,27,11.80
2017,05,17,08,28,11.70
2017,05,17,08,29,11.70
2017,05,17,08,31,11.80
2017,05,17,08,32,11.80
2017,05,17,08,33,11.80
2017,05,17,08,34,11.80
2017,05,17,08,36,11.80
2017,05,17,08,37,11.80
2017,05,17,08,38,11.80
2017,05,17,08,39,11.80
2017,05,17,08,41,11.80
2017,05,17,08,42,11.80
2017,05,17,08,43,11.80
2017,05,17,08,44,11.80
2017,05,17,08,45,11.80
2017,05,17,08,46,11.80
2017,05,17,08,47,11.80
2017,05,17,08,48,11.80
2017,05,17,08,49,11.80
2017,05,17,08,51,11.80
2017,05,17,08,52,11.80
2017,05,17,08,53,11.80
2017,05,17,08,54,11.80
2017,05,17,08,55,11.90
2017,05,17,08,56,11.90
2017,05,17,08,57,12.00
2017,05,17,08,58,12.00
2017,05,17,08,59,12.10
2017,05,17,09,00,12.10
2017,05,17,09,01,12.20
2017,05,17,09,02,12.20
2017,05,17,09,03,12.20
2017,05,17,09,04,12.20
2017,05,17,09,06,12.20
2017,05,17,09,07,12.20
2017,05,17,09,08,12.10
2017,05,17,09,09,12.10
2017,05,17,09,10,12.10
2017,05,17,09,11,12.20
2017,05,17,09,12,12.20
2017,05,17,09,13,12.20
2017,05,17,09,14,12.20
2017,05,17,09,15,12.20
2017,05,17,09,16,12.30
2017,05,17,09,17,12.30
2017,05,17,09,18,12.30
2017,05,17,09,19,12.30
2017,05,17,09,20,12.30
2017,05,17,09,21,12.30
2017,05,17,09,22,12.30
2017,05,17,09,23,12.30
2017,05,17,09,24,12.40
2017,05,17,09,25,12.50
2017,05,17,09,26,12.60
2017,05,17,09,27,12.70
2017,05,17,09,28,12.80
2017,05,17,09,29,12.80
2017,05,17,09,30,12.90
2017,05,17,09,31,13.00
2017,05,17,09,32,13.10
2017,05,17,09,33,13.20
2017,05,17,09,34,13.30
2017,05,17,09,35,13.30
2017,05,17,09,36,13.30
2017,05,17,09,37,13.40
2017,05,17,09,38,13.40
2017,05,17,09,39,13.50
2017,05,17,09,40,13.60
2017,05,17,09,41,13.70
2017,05,17,09,42,13.70
2017,05,17,09,43,13.70
2017,05,17,09,44,13.80
2017,05,17,09,45,13.80
2017,05,17,09,46,13.90
2017,05,17,09,47,14.00
2017,05,17,09,48,14.00
2017,05,17,09,49,14.10
2017,05,17,09,50,14.20
2017,05,17,09,51,14.20
2017,05,17,09,52,14.20
2017,05,17,09,53,14.30
2017,05,17,09,54,14.40
2017,05,17,09,55,14.50
2017,05,17,09,56,14.50
2017,05,17,09,58,14.60
2017,05,17,09,59,14.60
2017,05,17,10,00,14.60
2017,05,17,10,02,14.60
2017,05,17,10,03,14.70
2017,05,17,10,04,14.70
2017,05,17,10,06,14.70
2017,05,17,10,07,14.80
2017,05,17,10,08,14.80
2017,05,17,10,09,14.80
2017,05,17,10,11,14.80
2017,05,17,10,12,14.80
2017,05,17,10,13,14.80
2017,05,17,10,14,14.80
2017,05,17,10,16,14.90
2017,05,17,10,17,14.90
2017,05,17,10,18,15.00
2017,05,17,10,19,15.10
2017,05,17,10,21,15.30
2017,05,17,10,22,15.30
2017,05,17,10,23,15.40
2017,05,17,10,24,15.50
2017,05,17,10,26,15.60
2017,05,17,10,27,15.70
2017,05,17,10,28,15.60
2017,05,17,10,29,15.60
2017,05,17,10,31,15.50
2017,05,17,10,32,15.40
2017,05,17,10,33,15.40
2017,05,17,10,34,15.40
2017,05,17,10,36,15.40
2017,05,17,10,37,15.40
2017,05,17,10,38,15.40
2017,05,17,10,39,15.40
2017,05,17,10,41,15.40
2017,05,17,10,42,15.40
2017,05,17,10,43,15.50
2017,05,17,10,44,15.50
2017,05,17,10,46,15.60
2017,05,17,10,47,15.60
2017,05,17,10,48,15.70
2017,05,17,10,49,15.70
2017,05,17,10,51,15.60
2017,05,17,10,52,15.60
2017,05,17,10,53,15.60
2017,05,17,10,54,15.60
2017,05,17,10,56,15.60
2017,05,17,10,57,15.70
2017,05,17,10,58,15.70
2017,05,17,10,59,15.70
2017,05,17,11,00,15.70
2017,05,17,11,01,15.80
2017,05,17,11,02,15.80
2017,05,17,11,03,15.80
2017,05,17,11,04,15.80
2017,05,17,11,06,15.80
2017,05,17,11,07,15.80
2017,05,17,11,08,15.80
2017,05,17,11,09,15.80
2017,05,17,11,10,15.80
2017,05,17,11,11,15.80
2017,05,17,11,12,15.80
2017,05,17,11,13,15.80
2017,05,17,11,14,15.90
2017,05,17,11,15,15.90
2017,05,17,11,16,15.80
2017,05,17,11,17,15.80
2017,05,17,11,18,15.80
2017,05,17,11,19,15.80
2017,05,17,11,20,15.70
2017,05,17,11,21,15.70
2017,05,17,11,22,15.80
2017,05,17,11,23,15.80
2017,05,17,11,24,15.80
2017,05,17,11,25,15.80
2017,05,17,11,26,15.90
2017,05,17,11,27,16.10
2017,05,17,11,28,16.10
2017,05,17,11,29,16.20
2017,05,17,11,30,16.30
2017,05,17,11,31,16.40
2017,05,17,11,32,16.40
2017,05,17,11,33,16.60
2017,05,17,11,34,16.70
2017,05,17,11,35,16.70
2017,05,17,11,36,16.80
2017,05,17,11,37,16.90
2017,05,17,11,38,16.90
2017,05,17,11,39,17.00
2017,05,17,11,40,17.00
2017,05,17,11,41,16.90
2017,05,17,11,42,16.80
2017,05,17,11,43,16.70
2017,05,17,11,44,16.40
2017,05,17,11,45,16.20
2017,05,17,11,46,15.80
2017,05,17,11,47,15.70
2017,05,17,11,48,15.50
2017,05,17,11,49,15.30
2017,05,17,11,50,15.30
2017,05,17,11,51,15.10
2017,05,17,11,52,14.90
2017,05,17,11,53,14.80
2017,05,17,11,54,14.70
2017,05,17,11,55,14.60
2017,05,17,11,56,14.50
2017,05,17,11,57,14.40
2017,05,17,11,59,14.20
2017,05,17,12,00,14.20
2017,05,17,12,02,14.00
2017,05,17,12,03,13.90
2017,05,17,12,04,13.90
2017,05,17,12,06,13.70
2017,05,17,12,07,13.70
2017,05,17,12,08,13.70
2017,05,17,12,09,13.60
2017,05,17,12,11,13.50
2017,05,17,12,12,13.40
2017,05,17,12,13,13.40
2017,05,17,12,14,13.30
2017,05,17,12,16,13.30
2017,05,17,12,17,13.30
2017,05,17,12,18,13.30
2017,05,17,12,19,13.30
2017,05,17,12,21,13.30
2017,05,17,12,22,13.30
2017,05,17,12,23,13.30
2017,05,17,12,24,13.30
2017,05,17,12,26,13.30
2017,05,17,12,27,13.30
2017,05,17,12,28,13.30
2017,05,17,12,29,13.30
2017,05,17,12,31,13.20
2017,05,17,12,32,13.20
2017,05,17,12,33,13.20
2017,05,17,12,34,13.20
2017,05,17,12,36,13.20
2017,05,17,12,37,13.20
2017,05,17,12,38,13.20
2017,05,17,12,39,13.20
2017,05,17,12,41,13.20
2017,05,17,12,42,13.20
2017,05,17,12,43,13.20
2017,05,17,12,44,13.20
2017,05,17,12,46,13.20
2017,05,17,12,47,13.20
2017,05,17,12,48,13.20
2017,05,17,12,49,13.20
2017,05,17,12,51,13.30
2017,05,17,12,52,13.30
2017,05,17,12,53,13.30
2017,05,17,12,54,13.40
2017,05,17,12,55,13.40
2017,05,17,12,56,13.40
2017,05,17,12,57,13.50
2017,05,17,12,58,13.50
2017,05,17,12,59,13.50
2017,05,17,13,00,13.50
2017,05,17,13,01,13.50
2017,05,17,13,02,13.40
2017,05,17,13,03,13.40
2017,05,17,13,04,13.40
2017,05,17,13,06,13.40
2017,05,17,13,07,13.40
2017,05,17,13,08,13.30
2017,05,17,13,09,13.30
2017,05,17,13,10,13.30
2017,05,17,13,11,13.30
2017,05,17,13,12,13.30
2017,05,17,13,13,13.30
2017,05,17,13,14,13.30
2017,05,17,13,15,13.30
2017,05,17,13,16,13.30
2017,05,17,13,17,13.30
2017,05,17,13,18,13.30
2017,05,17,13,19,13.30
2017,05,17,13,20,13.30
2017,05,17,13,21,13.30
2017,05,17,13,22,13.30
2017,05,17,13,23,13.30
2017,05,17,13,24,13.30
2017,05,17,13,25,13.30
2017,05,17,13,26,13.30
2017,05,17,13,27,13.30
2017,05,17,13,28,13.30
2017,05,17,13,29,13.30
2017,05,17,13,30,13.30
2017,05,17,13,31,13.30
2017,05,17,13,32,13.30
2017,05,17,13,33,13.30
2017,05,17,13,34,13.30
2017,05,17,13,35,13.40
2017,05,17,13,36,13.40
2017,05,17,13,37,13.40
2017,05,17,13,38,13.30
2017,05,17,13,39,13.30
2017,05,17,13,40,13.30
2017,05,17,13,41,13.30
2017,05,17,13,42,13.30
2017,05,17,13,43,13.30
2017,05,17,13,44,13.20
2017,05,17,13,45,13.20
2017,05,17,13,46,13.20
2017,05,17,13,47,13.10
2017,05,17,13,48,13.10
2017,05,17,13,49,13.00
2017,05,17,13,50,13.00
2017,05,17,13,51,13.00
2017,05,17,13,52,12.90
2017,05,17,13,53,12.90
2017,05,17,13,54,12.90
2017,05,17,13,55,12.90
2017,05,17,13,56,12.80
2017,05,17,13,57,12.80
2017,05,17,13,58,12.80
2017,05,17,13,59,12.80
2017,05,17,14,00,12.80
2017,05,17,14,01,12.80
2017,05,17,14,02,12.80
2017,05,17,14,03,12.70
2017,05,17,14,04,12.70
2017,05,17,14,05,12.70
2017,05,17,14,06,12.60
2017,05,17,14,07,12.60
2017,05,17,14,08,12.60
2017,05,17,14,09,12.60
2017,05,17,14,10,12.60
2017,05,17,14,11,12.60
2017,05,17,14,12,12.60
2017,05,17,14,13,12.60
2017,05,17,14,14,12.60
2017,05,17,14,15,12.60
2017,05,17,14,16,12.60
2017,05,17,14,17,12.60
2017,05,17,14,18,12.60
2017,05,17,14,19,12.60
2017,05,17,14,21,12.60
2017,05,17,14,23,12.70
2017,05,17,14,24,12.70
2017,05,17,14,26,12.70
2017,05,17,14,27,12.70
2017,05,17,14,28,12.70
2017,05,17,14,29,12.70
2017,05,17,14,31,12.70
2017,05,17,14,32,12.70
2017,05,17,14,33,12.70
2017,05,17,14,34,12.70
2017,05,17,14,36,12.70
2017,05,17,14,37,12.60
2017,05,17,14,38,12.60
2017,05,17,14,39,12.60
2017,05,17,14,41,12.60
2017,05,17,14,42,12.50
2017,05,17,14,43,12.50
2017,05,17,14,44,12.50
2017,05,17,14,46,12.50
2017,05,17,14,47,12.50
2017,05,17,14,48,12.50
2017,05,17,14,49,12.50
2017,05,17,14,51,12.50
2017,05,17,14,52,12.50
2017,05,17,14,53,12.50
2017,05,17,14,54,12.50
2017,05,17,14,56,12.50
2017,05,17,14,57,12.50
2017,05,17,14,58,12.50
2017,05,17,14,59,12.50
2017,05,17,15,01,12.50
2017,05,17,15,02,12.60
2017,05,17,15,03,12.60
2017,05,17,15,04,12.60
2017,05,17,15,06,12.70
2017,05,17,15,07,12.80
2017,05,17,15,08,12.80
2017,05,17,15,09,12.80
2017,05,17,15,11,12.90
2017,05,17,15,12,12.90
2017,05,17,15,13,13.00
2017,05,17,15,14,13.10
2017,05,17,15,16,13.20
2017,05,17,15,17,13.20
2017,05,17,15,18,13.20
2017,05,17,15,19,13.30
2017,05,17,15,21,13.30
2017,05,17,15,22,13.30
2017,05,17,15,23,13.30
2017,05,17,15,24,13.30
2017,05,17,15,26,13.20
2017,05,17,15,27,13.20
2017,05,17,15,28,13.20
2017,05,17,15,29,13.20
2017,05,17,15,31,13.10
2017,05,17,15,32,13.20
2017,05,17,15,33,13.20
2017,05,17,15,34,13.20
2017,05,17,15,36,13.20
2017,05,17,15,37,13.30
2017,05,17,15,38,13.30
2017,05,17,15,39,13.30
2017,05,17,15,41,13.30
2017,05,17,15,42,13.30
2017,05,17,15,43,13.30
2017,05,17,15,44,13.30
2017,05,17,15,46,13.40
2017,05,17,15,47,13.40
2017,05,17,15,48,13.50
2017,05,17,15,49,13.50
2017,05,17,15,51,13.70
2017,05,17,15,52,13.70
2017,05,17,15,53,13.70
2017,05,17,15,54,13.70
2017,05,17,15,56,13.80
2017,05,17,15,57,13.80
2017,05,17,15,58,13.90
2017,05,17,15,59,13.90
2017,05,17,16,00,13.90
2017,05,17,16,01,14.00
2017,05,17,16,02,14.00
2017,05,17,16,03,14.00
2017,05,17,16,04,14.10
2017,05,17,16,06,14.10
2017,05,17,16,07,14.10
2017,05,17,16,08,14.10
2017,05,17,16,09,14.20
2017,05,17,16,10,14.10
2017,05,17,16,11,14.10
2017,05,17,16,12,14.10
2017,05,17,16,13,14.00
2017,05,17,16,14,14.00
2017,05,17,16,15,14.00
2017,05,17,16,16,13.90
2017,05,17,16,17,13.90
2017,05,17,16,18,13.80
2017,05,17,16,19,13.80
2017,05,17,16,20,13.70
2017,05,17,16,21,13.60
2017,05,17,16,22,13.50
2017,05,17,16,23,13.40
2017,05,17,16,24,13.30
2017,05,17,16,25,13.30
2017,05,17,16,26,13.30
2017,05,17,16,27,13.20
2017,05,17,16,28,13.20
2017,05,17,16,29,13.20
2017,05,17,16,30,13.10
2017,05,17,16,31,13.10
2017,05,17,16,32,13.00
2017,05,17,16,33,13.00
2017,05,17,16,34,13.00
2017,05,17,16,35,12.90
2017,05,17,16,36,13.00
2017,05,17,16,37,13.00
2017,05,17,16,38,13.00
2017,05,17,16,39,13.00
2017,05,17,16,40,13.00
2017,05,17,16,41,13.00
2017,05,17,16,42,13.00
2017,05,17,16,43,13.00
2017,05,17,16,44,13.00
2017,05,17,16,45,13.00
2017,05,17,16,46,13.00
2017,05,17,16,47,13.00
2017,05,17,16,48,12.90
2017,05,17,16,49,12.90
2017,05,17,16,50,12.90
2017,05,17,16,51,12.80
2017,05,17,16,52,12.80
2017,05,17,16,53,12.80
2017,05,17,16,54,12.80
2017,05,17,16,55,12.80
2017,05,17,16,56,12.80
2017,05,17,16,57,12.80
2017,05,17,16,58,12.80
2017,05,17,16,59,12.80
2017,05,17,17,00,12.80
2017,05,17,17,01,12.80
2017,05,17,17,02,12.70
2017,05,17,17,03,12.70
2017,05,17,17,04,12.70
2017,05,17,17,05,12.70
2017,05,17,17,06,12.70
2017,05,17,17,07,12.70
2017,05,17,17,08,12.60
2017,05,17,17,09,12.60
2017,05,17,17,11,12.60
2017,05,17,17,12,12.60
2017,05,17,17,13,12.60
2017,05,17,17,14,12.60
2017,05,17,17,16,12.60
2017,05,17,17,17,12.60
2017,05,17,17,18,12.60
2017,05,17,17,19,12.60
2017,05,17,17,21,12.60
2017,05,17,17,22,12.50
2017,05,17,17,23,12.50
2017,05,17,17,24,12.50
2017,05,17,17,26,12.60
2017,05,17,17,27,12.60
2017,05,17,17,28,12.60
2017,05,17,17,29,12.60
2017,05,17,17,31,12.60
2017,05,17,17,32,12.50
2017,05,17,17,33,12.40
2017,05,17,17,34,12.40
2017,05,17,17,36,12.40
2017,05,17,17,37,12.40
2017,05,17,17,38,12.30
2017,05,17,17,39,12.30
2017,05,17,17,41,12.30
2017,05,17,17,42,12.30
2017,05,17,17,43,12.30
2017,05,17,17,44,12.30
2017,05,17,17,46,12.30
2017,05,17,17,47,12.30
2017,05,17,17,48,12.30
2017,05,17,17,49,12.30
2017,05,17,17,51,12.30
2017,05,17,17,52,12.30
2017,05,17,17,53,12.30
2017,05,17,17,54,12.30
2017,05,17,17,56,12.20
2017,05,17,17,57,12.20
2017,05,17,17,58,12.20
2017,05,17,17,59,12.10
2017,05,17,18,01,12.10
2017,05,17,18,02,12.10
2017,05,17,18,03,12.10
2017,05,17,18,04,12.10
2017,05,17,18,06,12.00
2017,05,17,18,07,12.00
2017,05,17,18,08,12.00
2017,05,17,18,09,11.90
2017,05,17,18,11,11.90
2017,05,17,18,12,11.90
2017,05,17,18,13,11.80
2017,05,17,18,14,11.80
2017,05,17,18,16,11.80
2017,05,17,18,17,11.80
2017,05,17,18,18,11.80
2017,05,17,18,19,11.80
2017,05,17,18,21,11.80
2017,05,17,18,22,11.80
2017,05,17,18,23,11.80
2017,05,17,18,24,11.80
2017,05,17,18,26,11.80
2017,05,17,18,27,11.80
2017,05,17,18,28,11.80
2017,05,17,18,29,11.80
2017,05,17,18,31,11.80
2017,05,17,18,32,11.80
2017,05,17,18,33,11.70
2017,05,17,18,34,11.70
2017,05,17,18,36,11.70
2017,05,17,18,37,11.70
2017,05,17,18,38,11.60
2017,05,17,18,39,11.60
2017,05,17,18,40,11.60
2017,05,17,18,41,11.60
2017,05,17,18,42,11.60
2017,05,17,18,43,11.60
2017,05,17,18,44,11.60
2017,05,17,18,45,11.60
2017,05,17,18,46,11.60
2017,05,17,18,47,11.60
2017,05,17,18,48,11.60
2017,05,17,18,49,11.60
2017,05,17,18,50,11.70
2017,05,17,18,51,11.70
2017,05,17,18,52,11.70
2017,05,17,18,53,11.80
2017,05,17,18,54,11.80
2017,05,17,18,55,11.80
2017,05,17,18,56,11.80
2017,05,17,18,57,11.90
2017,05,17,18,58,11.90
2017,05,17,18,59,11.90
2017,05,17,19,00,11.90
2017,05,17,19,01,12.00
2017,05,17,19,02,12.00
2017,05,17,19,03,12.00
2017,05,17,19,04,12.10
2017,05,17,19,05,12.10
2017,05,17,19,06,12.10
2017,05,17,19,07,12.10
2017,05,17,19,08,12.20
2017,05,17,19,09,12.20
2017,05,17,19,10,12.20
2017,05,17,19,11,12.30
2017,05,17,19,12,12.30
2017,05,17,19,13,12.30
2017,05,17,19,14,12.30
2017,05,17,19,15,12.30
2017,05,17,19,16,12.30
2017,05,17,19,17,12.30
2017,05,17,19,18,12.30
2017,05,17,19,19,12.30
2017,05,17,19,20,12.30
2017,05,17,19,21,12.30
2017,05,17,19,22,12.30
2017,05,17,19,23,12.30
2017,05,17,19,24,12.30
2017,05,17,19,25,12.30
2017,05,17,19,26,12.30
2017,05,17,19,27,12.30
2017,05,17,19,28,12.30
2017,05,17,19,29,12.40
2017,05,17,19,30,12.40
2017,05,17,19,31,12.40
2017,05,17,19,32,12.40
2017,05,17,19,33,12.40
2017,05,17,19,34,12.40
2017,05,17,19,35,12.40
2017,05,17,19,36,12.40
2017,05,17,19,37,12.40
2017,05,17,19,38,12.40